TRA91F EHRD-LEGE

Flight info

Callsign TRA91F
Flight time 1h 38m
Altitude 36000
Route WOODY N872 MEDIL DCT KOVIN DCT DUCRA DCT RESMI DCT DEKOD DCT DISAK DCT DIRMO DCT VALKU DCT ATSUP DCT MINSO DCT DEGOL DCT PPG A27 KANIG
Aircraft A21N/M-VGDW/C

Departure

Time 2026-04-27 12:00
Airport Rotterdam The Hague Airport (EHRD)

Arrival

Time 2026-04-27 13:39
Airport Girona-Costa Brava Airport (LEGE)
Time Latitude Longitude Altitude Speed Heading
2026-04-27 11:26 51.94937 4.43588 -6 ft 0 kts 327°
2026-04-27 11:51 51.94940 4.43585 -6 ft 3 kts 327°
2026-04-27 11:52 51.94967 4.43568 -6 ft 4 kts 359°
2026-04-27 11:52 51.94989 4.43586 -6 ft 4 kts 55°
2026-04-27 11:52 51.95013 4.43640 -6 ft 9 kts 39°
2026-04-27 11:52 51.95096 4.43589 -6 ft 18 kts 326°
2026-04-27 11:53 51.95214 4.43464 -5 ft 11 kts 327°
2026-04-27 11:53 51.95226 4.43364 -5 ft 9 kts 221°
2026-04-27 11:53 51.95175 4.43240 -5 ft 18 kts 238°
2026-04-27 11:53 51.95118 4.43060 -5 ft 8 kts 246°
2026-04-27 11:54 51.95111 4.43030 -5 ft 0 kts 250°
2026-04-27 11:54 51.95110 4.43022 -5 ft 0 kts 255°
2026-04-27 11:59 51.95121 4.42951 -5 ft 10 kts 309°
2026-04-27 11:59 51.95188 4.42868 -5 ft 14 kts 333°
2026-04-27 11:59 51.95242 4.42911 -5 ft 8 kts 54°
2026-04-27 12:00 51.95312 4.43078 -5 ft 45 kts 56°
2026-04-27 12:00 51.95630 4.43875 -4 ft 119 kts 56°
2026-04-27 12:00 51.96176 4.45216 184 ft 155 kts 54°
2026-04-27 12:00 51.96812 4.46662 871 ft 158 kts 56°
2026-04-27 12:01 51.97067 4.48334 1592 ft 163 kts 95°
2026-04-27 12:01 51.96493 4.50047 1998 ft 190 kts 135°
2026-04-27 12:01 51.95286 4.51228 2383 ft 216 kts 152°
2026-04-27 12:01 51.93865 4.52371 2825 ft 238 kts 153°
2026-04-27 12:02 51.92298 4.53570 3467 ft 259 kts 158°
2026-04-27 12:02 51.90488 4.53981 4484 ft 271 kts 185°
2026-04-27 12:02 51.88607 4.53459 5051 ft 276 kts 191°
2026-04-27 12:02 51.86730 4.52807 5246 ft 275 kts 192°
2026-04-27 12:03 51.84857 4.52117 5451 ft 278 kts 193°
2026-04-27 12:03 51.82966 4.51420 6603 ft 278 kts 193°
2026-04-27 12:03 51.81076 4.50733 7662 ft 280 kts 193°
2026-04-27 12:03 51.79163 4.50048 8686 ft 283 kts 194°
2026-04-27 12:04 51.77228 4.49363 9696 ft 287 kts 194°
2026-04-27 12:04 51.75261 4.48675 10570 ft 296 kts 194°
2026-04-27 12:04 51.73169 4.47943 10940 ft 320 kts 194°
2026-04-27 12:04 51.70947 4.47169 11575 ft 331 kts 194°
2026-04-27 12:05 51.68682 4.46380 12408 ft 336 kts 194°
2026-04-27 12:05 51.66386 4.45579 13302 ft 339 kts 194°
2026-04-27 12:05 51.64070 4.44768 14211 ft 342 kts 195°
2026-04-27 12:05 51.61729 4.43950 15031 ft 346 kts 195°
2026-04-27 12:06 51.59358 4.43123 15848 ft 350 kts 195°
2026-04-27 12:06 51.56968 4.42291 16641 ft 353 kts 195°
2026-04-27 12:06 51.54550 4.41455 17425 ft 358 kts 196°
2026-04-27 12:06 51.52106 4.40614 18209 ft 361 kts 196°
2026-04-27 12:07 51.49632 4.39765 18914 ft 365 kts 196°
2026-04-27 12:07 51.47135 4.38907 19571 ft 369 kts 197°
2026-04-27 12:07 51.44616 4.38044 20229 ft 372 kts 196°
2026-04-27 12:07 51.42068 4.37170 20886 ft 375 kts 197°
2026-04-27 12:08 51.39591 4.35910 21519 ft 373 kts 207°
2026-04-27 12:08 51.37243 4.34132 22171 ft 375 kts 210°
2026-04-27 12:08 51.34884 4.32320 22802 ft 378 kts 210°
2026-04-27 12:08 51.32498 4.30497 23445 ft 381 kts 210°
2026-04-27 12:09 51.30095 4.28672 24019 ft 384 kts 210°
2026-04-27 12:09 51.27674 4.26840 24527 ft 387 kts 210°
2026-04-27 12:09 51.25237 4.24998 25049 ft 389 kts 210°
2026-04-27 12:09 51.22786 4.23145 25558 ft 391 kts 210°
2026-04-27 12:10 51.20321 4.21276 26062 ft 394 kts 210°
2026-04-27 12:10 51.17836 4.19391 26570 ft 396 kts 210°
2026-04-27 12:10 51.15275 4.17693 27056 ft 403 kts 204°
2026-04-27 12:10 51.12619 4.16240 27555 ft 405 kts 204°
2026-04-27 12:11 51.09946 4.14779 28046 ft 408 kts 204°
2026-04-27 12:11 51.07255 4.13307 28525 ft 410 kts 204°
2026-04-27 12:11 51.04551 4.11828 29007 ft 412 kts 204°
2026-04-27 12:11 51.01828 4.10340 29477 ft 415 kts 204°
2026-04-27 12:12 50.99129 4.08865 29933 ft 417 kts 204°
2026-04-27 12:12 50.96376 4.07361 30376 ft 419 kts 205°
2026-04-27 12:12 50.93612 4.05851 30742 ft 422 kts 204°
2026-04-27 12:12 50.90828 4.04333 31110 ft 424 kts 204°
2026-04-27 12:13 50.88032 4.02814 31483 ft 426 kts 205°
2026-04-27 12:13 50.85248 4.01206 31957 ft 424 kts 206°
2026-04-27 12:13 50.82513 3.99494 32500 ft 422 kts 207°
2026-04-27 12:13 50.79803 3.97723 33040 ft 420 kts 208°
2026-04-27 12:14 50.77121 3.95938 33585 ft 418 kts 208°
2026-04-27 12:14 50.74439 3.94158 34106 ft 417 kts 207°
2026-04-27 12:14 50.71759 3.92406 34557 ft 417 kts 207°
2026-04-27 12:14 50.69069 3.90672 34937 ft 417 kts 207°
2026-04-27 12:15 50.66370 3.88951 35297 ft 418 kts 206°
2026-04-27 12:15 50.63673 3.87248 35645 ft 419 kts 206°
2026-04-27 12:15 50.60961 3.85540 35985 ft 420 kts 206°
2026-04-27 12:15 50.58248 3.83829 36330 ft 421 kts 206°
2026-04-27 12:16 50.55535 3.82095 36665 ft 421 kts 207°
2026-04-27 12:16 50.52833 3.80289 36989 ft 421 kts 207°
2026-04-27 12:16 50.50148 3.78440 37216 ft 423 kts 208°
2026-04-27 12:17 50.44796 3.74709 37253 ft 419 kts 208°
2026-04-27 12:17 50.39462 3.71037 37251 ft 418 kts 208°
2026-04-27 12:18 50.34125 3.67423 37244 ft 418 kts 207°
2026-04-27 12:18 50.28786 3.63829 37244 ft 418 kts 207°
2026-04-27 12:19 50.23441 3.60235 37241 ft 418 kts 207°
2026-04-27 12:19 50.18101 3.56638 37241 ft 418 kts 207°
2026-04-27 12:20 50.12760 3.53042 37243 ft 418 kts 207°
2026-04-27 12:20 50.07420 3.49457 37242 ft 418 kts 207°
2026-04-27 12:21 50.02073 3.45881 37242 ft 418 kts 207°
2026-04-27 12:21 49.96733 3.42330 37243 ft 417 kts 207°
2026-04-27 12:22 49.91425 3.38809 37244 ft 417 kts 207°
2026-04-27 12:22 49.86057 3.35248 37243 ft 417 kts 207°
2026-04-27 12:23 49.80728 3.31722 37239 ft 416 kts 207°
2026-04-27 12:23 49.75430 3.28228 37239 ft 416 kts 207°
2026-04-27 12:24 49.70106 3.24722 37231 ft 416 kts 207°
2026-04-27 12:24 49.64788 3.21217 37233 ft 416 kts 207°
2026-04-27 12:25 49.59461 3.17731 37235 ft 415 kts 207°
2026-04-27 12:25 49.54135 3.14260 37231 ft 415 kts 207°
2026-04-27 12:26 49.48845 3.10727 37229 ft 412 kts 212°
2026-04-27 12:26 49.44046 3.06010 37234 ft 409 kts 217°
2026-04-27 12:27 49.39305 3.01196 37230 ft 409 kts 217°
2026-04-27 12:27 49.34557 2.96391 37230 ft 408 kts 217°
2026-04-27 12:28 49.29820 2.91591 37229 ft 408 kts 217°
2026-04-27 12:28 49.25081 2.86806 37228 ft 408 kts 217°
2026-04-27 12:29 49.20334 2.82031 37234 ft 408 kts 217°
2026-04-27 12:29 49.15619 2.77307 37241 ft 408 kts 217°
2026-04-27 12:30 49.10848 2.72527 37234 ft 407 kts 217°
2026-04-27 12:30 49.06107 2.67796 37229 ft 407 kts 217°
2026-04-27 12:31 49.01400 2.63098 37228 ft 407 kts 217°
2026-04-27 12:31 48.96663 2.58376 37228 ft 407 kts 217°
2026-04-27 12:32 48.91931 2.53679 37234 ft 406 kts 217°
2026-04-27 12:32 48.87192 2.48988 37223 ft 406 kts 217°
2026-04-27 12:33 48.82454 2.44314 37223 ft 406 kts 217°
2026-04-27 12:33 48.77726 2.39643 37230 ft 406 kts 217°
2026-04-27 12:34 48.73790 2.35766 37226 ft 406 kts 216°
2026-04-27 12:34 48.69029 2.31090 37229 ft 406 kts 216°
2026-04-27 12:35 48.64322 2.26476 37222 ft 406 kts 216°
2026-04-27 12:35 48.59575 2.21854 37222 ft 405 kts 216°
2026-04-27 12:36 48.54420 2.18400 37216 ft 414 kts 198°
2026-04-27 12:36 48.48765 2.16585 37207 ft 415 kts 196°
2026-04-27 12:37 48.43117 2.14766 37205 ft 415 kts 196°
2026-04-27 12:37 48.37465 2.12939 37197 ft 416 kts 197°
2026-04-27 12:38 48.31813 2.11107 37200 ft 416 kts 196°
2026-04-27 12:38 48.26010 2.10484 37195 ft 425 kts 178°
2026-04-27 12:39 48.20125 2.11739 37193 ft 427 kts 176°
2026-04-27 12:39 48.14244 2.12985 37189 ft 427 kts 177°
2026-04-27 12:40 48.08362 2.13453 37193 ft 423 kts 182°
2026-04-27 12:40 48.02478 2.13792 37196 ft 423 kts 182°
2026-04-27 12:41 47.96590 2.14149 37199 ft 423 kts 182°
2026-04-27 12:41 47.90708 2.14498 37201 ft 423 kts 182°
2026-04-27 12:42 47.84823 2.14842 37199 ft 423 kts 182°
2026-04-27 12:42 47.78945 2.15176 37197 ft 423 kts 182°
2026-04-27 12:43 47.73071 2.15527 37190 ft 423 kts 182°
2026-04-27 12:43 47.67192 2.15878 37188 ft 422 kts 182°
2026-04-27 12:44 47.61321 2.16214 37182 ft 422 kts 182°
2026-04-27 12:44 47.55452 2.16547 37172 ft 422 kts 182°
2026-04-27 12:45 47.49577 2.16886 37173 ft 422 kts 182°
2026-04-27 12:45 47.43703 2.17226 37171 ft 422 kts 182°
2026-04-27 12:46 47.37838 2.17571 37167 ft 422 kts 182°
2026-04-27 12:46 47.32006 2.17909 37163 ft 422 kts 182°
2026-04-27 12:47 47.26135 2.18243 37156 ft 422 kts 182°
2026-04-27 12:47 47.20270 2.18575 37154 ft 422 kts 182°
2026-04-27 12:48 47.14400 2.18907 37155 ft 422 kts 183°
2026-04-27 12:48 47.08542 2.19728 37152 ft 429 kts 171°
2026-04-27 12:49 47.02886 2.22749 37154 ft 434 kts 163°
2026-04-27 12:49 46.97275 2.26031 37152 ft 434 kts 163°
2026-04-27 12:50 46.91658 2.29301 37147 ft 435 kts 163°
2026-04-27 12:50 46.86033 2.32572 37146 ft 435 kts 163°
2026-04-27 12:51 46.80413 2.35836 37148 ft 435 kts 163°
2026-04-27 12:51 46.74783 2.39091 37146 ft 435 kts 163°
2026-04-27 12:52 46.69155 2.42333 37148 ft 435 kts 163°
2026-04-27 12:52 46.63527 2.45580 37146 ft 435 kts 163°
2026-04-27 12:53 46.55076 2.50443 37148 ft 435 kts 163°
2026-04-27 12:53 46.49437 2.53682 37145 ft 435 kts 163°
2026-04-27 12:54 46.43804 2.56909 37145 ft 435 kts 163°
2026-04-27 12:54 46.38160 2.60125 37149 ft 435 kts 163°
2026-04-27 12:55 46.32521 2.63332 37161 ft 436 kts 163°
2026-04-27 12:55 46.26874 2.66537 37141 ft 436 kts 163°
2026-04-27 12:56 46.21232 2.69725 37155 ft 435 kts 163°
2026-04-27 12:56 46.15624 2.72890 37154 ft 436 kts 163°
2026-04-27 12:57 46.09975 2.76086 37146 ft 436 kts 163°
2026-04-27 12:57 46.04330 2.79272 37150 ft 436 kts 163°
2026-04-27 12:58 45.98678 2.82432 37142 ft 436 kts 163°
2026-04-27 12:58 45.92995 2.85471 37145 ft 435 kts 164°
2026-04-27 12:59 45.87300 2.88434 37138 ft 436 kts 164°
2026-04-27 12:59 45.81604 2.91399 37131 ft 436 kts 164°
2026-04-27 13:00 45.75890 2.94268 37132 ft 433 kts 169°
2026-04-27 13:00 45.69984 2.95162 37124 ft 424 kts 185°
2026-04-27 13:01 45.64082 2.94982 37127 ft 425 kts 185°
2026-04-27 13:01 45.58173 2.94823 37123 ft 425 kts 185°
2026-04-27 13:02 45.52252 2.94665 37125 ft 425 kts 185°
2026-04-27 13:02 45.46325 2.94520 37139 ft 426 kts 185°
2026-04-27 13:03 45.40399 2.94367 37135 ft 426 kts 185°
2026-04-27 13:03 45.34467 2.94214 37137 ft 427 kts 184°
2026-04-27 13:04 45.28523 2.94057 37139 ft 427 kts 185°
2026-04-27 13:04 45.22580 2.93906 37141 ft 427 kts 184°
2026-04-27 13:05 45.16633 2.93752 37140 ft 428 kts 184°
2026-04-27 13:05 45.10678 2.93594 37142 ft 428 kts 184°
2026-04-27 13:06 45.04726 2.93435 37143 ft 428 kts 184°
2026-04-27 13:06 44.98762 2.93284 37141 ft 428 kts 184°
2026-04-27 13:07 44.92801 2.93141 37144 ft 429 kts 184°
2026-04-27 13:07 44.86839 2.92991 37149 ft 429 kts 184°
2026-04-27 13:08 44.80874 2.92740 37146 ft 428 kts 186°
2026-04-27 13:08 44.74932 2.92259 37143 ft 428 kts 187°
2026-04-27 13:09 44.68991 2.91760 37142 ft 428 kts 186°
2026-04-27 13:09 44.63046 2.91313 37141 ft 428 kts 186°
2026-04-27 13:10 44.57094 2.90888 37134 ft 428 kts 186°
2026-04-27 13:10 44.51146 2.90457 37139 ft 428 kts 186°
2026-04-27 13:11 44.45188 2.90026 37139 ft 429 kts 186°
2026-04-27 13:11 44.39230 2.89591 37138 ft 429 kts 186°
2026-04-27 13:12 44.33273 2.89164 37135 ft 429 kts 185°
2026-04-27 13:12 44.27308 2.88742 37135 ft 429 kts 185°
2026-04-27 13:13 44.21350 2.88315 37125 ft 429 kts 185°
2026-04-27 13:13 44.15390 2.87883 37128 ft 429 kts 185°
2026-04-27 13:14 44.09424 2.87448 37124 ft 429 kts 185°
2026-04-27 13:14 44.06430 2.87233 36908 ft 431 kts 185°
2026-04-27 13:14 44.03440 2.87021 36643 ft 430 kts 185°
2026-04-27 13:15 44.00483 2.86812 36384 ft 431 kts 185°
2026-04-27 13:15 43.97450 2.86598 36122 ft 431 kts 185°
2026-04-27 13:15 43.94453 2.86384 35867 ft 432 kts 185°
2026-04-27 13:15 43.91450 2.86170 35616 ft 433 kts 185°
2026-04-27 13:16 43.89459 2.86028 35447 ft 433 kts 185°
2026-04-27 13:16 43.86442 2.85811 35202 ft 434 kts 185°
2026-04-27 13:16 43.83426 2.85594 34954 ft 435 kts 185°
2026-04-27 13:16 43.80406 2.85376 34707 ft 435 kts 185°
2026-04-27 13:17 43.77380 2.85173 34466 ft 436 kts 184°
2026-04-27 13:17 43.74343 2.85094 34230 ft 437 kts 181°
2026-04-27 13:17 43.71299 2.85129 33966 ft 438 kts 180°
2026-04-27 13:17 43.68244 2.85230 33695 ft 439 kts 180°
2026-04-27 13:18 43.65190 2.85352 33421 ft 439 kts 180°
2026-04-27 13:18 43.62132 2.85458 33150 ft 440 kts 180°
2026-04-27 13:18 43.59073 2.85535 32832 ft 439 kts 181°
2026-04-27 13:18 43.56035 2.85584 32251 ft 435 kts 181°
2026-04-27 13:19 43.53019 2.85618 31683 ft 432 kts 181°
2026-04-27 13:19 43.50024 2.85649 31118 ft 429 kts 181°
2026-04-27 13:19 43.47041 2.85680 30557 ft 427 kts 181°
2026-04-27 13:19 43.44083 2.85716 29971 ft 424 kts 181°
2026-04-27 13:20 43.41142 2.85756 29403 ft 419 kts 181°
2026-04-27 13:20 43.38241 2.85801 28867 ft 415 kts 181°
2026-04-27 13:20 43.35363 2.85846 28330 ft 412 kts 181°
2026-04-27 13:20 43.32512 2.85889 27803 ft 408 kts 181°
2026-04-27 13:21 43.29689 2.85931 27288 ft 404 kts 181°
2026-04-27 13:21 43.26890 2.85972 26778 ft 400 kts 181°
2026-04-27 13:21 43.24123 2.86011 26297 ft 396 kts 181°
2026-04-27 13:21 43.21386 2.86050 25826 ft 391 kts 180°
2026-04-27 13:22 43.18674 2.86085 25360 ft 387 kts 180°
2026-04-27 13:22 43.15996 2.86122 24907 ft 383 kts 180°
2026-04-27 13:22 43.13345 2.86163 24459 ft 379 kts 180°
2026-04-27 13:22 43.10719 2.86202 24001 ft 376 kts 180°
2026-04-27 13:23 43.08107 2.86242 23516 ft 373 kts 180°
2026-04-27 13:23 43.05523 2.86283 23031 ft 369 kts 180°
2026-04-27 13:23 43.03003 2.86321 22585 ft 365 kts 180°
2026-04-27 13:23 43.00477 2.86354 22128 ft 361 kts 180°
2026-04-27 13:24 42.97943 2.86390 21668 ft 358 kts 180°
2026-04-27 13:24 42.95492 2.86423 21219 ft 355 kts 180°
2026-04-27 13:24 42.93031 2.86456 20758 ft 353 kts 180°
2026-04-27 13:24 42.90588 2.86488 20310 ft 350 kts 180°
2026-04-27 13:25 42.88161 2.86522 19850 ft 348 kts 180°
2026-04-27 13:25 42.85747 2.86559 19401 ft 346 kts 180°
2026-04-27 13:25 42.83347 2.86597 18954 ft 344 kts 180°
2026-04-27 13:25 42.80960 2.86634 18506 ft 342 kts 180°
2026-04-27 13:26 42.78579 2.86673 18018 ft 340 kts 180°
2026-04-27 13:26 42.76223 2.86729 17575 ft 337 kts 177°
2026-04-27 13:26 42.73916 2.87213 17132 ft 335 kts 166°
2026-04-27 13:26 42.71696 2.88146 16713 ft 333 kts 163°
2026-04-27 13:27 42.69499 2.89100 16289 ft 331 kts 163°
2026-04-27 13:27 42.67314 2.90045 15869 ft 329 kts 163°
2026-04-27 13:27 42.65141 2.90980 15444 ft 327 kts 164°
2026-04-27 13:27 42.62972 2.91913 15028 ft 326 kts 163°
2026-04-27 13:28 42.60806 2.92842 14610 ft 327 kts 164°
2026-04-27 13:28 42.58643 2.93769 14190 ft 326 kts 164°
2026-04-27 13:28 42.56484 2.94694 13744 ft 325 kts 164°
2026-04-27 13:28 42.54331 2.95613 13298 ft 324 kts 164°
2026-04-27 13:29 42.52185 2.96529 12863 ft 322 kts 164°
2026-04-27 13:29 42.50046 2.97392 12444 ft 320 kts 169°
2026-04-27 13:29 42.47853 2.97719 12018 ft 316 kts 182°
2026-04-27 13:29 42.45686 2.97386 11585 ft 312 kts 195°
2026-04-27 13:30 42.43603 2.96593 11158 ft 310 kts 198°
2026-04-27 13:30 42.41532 2.95785 10737 ft 309 kts 198°
2026-04-27 13:30 42.39464 2.94984 10355 ft 307 kts 198°
2026-04-27 13:30 42.37439 2.94203 10139 ft 299 kts 197°
2026-04-27 13:31 42.35457 2.93439 10021 ft 295 kts 197°
2026-04-27 13:31 42.33478 2.92675 9788 ft 296 kts 197°
2026-04-27 13:31 42.31506 2.91912 9393 ft 294 kts 197°
2026-04-27 13:31 42.29546 2.91152 8997 ft 293 kts 197°
2026-04-27 13:32 42.27594 2.90400 8601 ft 291 kts 197°
2026-04-27 13:32 42.25654 2.89655 8200 ft 289 kts 196°
2026-04-27 13:32 42.23716 2.88911 7674 ft 291 kts 196°
2026-04-27 13:32 42.21825 2.88186 7355 ft 270 kts 196°
2026-04-27 13:33 42.20056 2.87508 6773 ft 262 kts 196°
2026-04-27 13:33 42.18316 2.86841 6089 ft 258 kts 196°
2026-04-27 13:33 42.16599 2.86183 5403 ft 255 kts 196°
2026-04-27 13:33 42.14908 2.85535 4850 ft 247 kts 196°
2026-04-27 13:34 42.13307 2.84922 4640 ft 236 kts 196°
2026-04-27 13:34 42.11738 2.84318 4506 ft 234 kts 197°
2026-04-27 13:34 42.10176 2.83704 4403 ft 234 kts 197°
2026-04-27 13:34 42.08617 2.83088 4259 ft 234 kts 197°
2026-04-27 13:35 42.07046 2.82483 3711 ft 233 kts 195°
2026-04-27 13:35 42.05504 2.81900 3327 ft 228 kts 196°
2026-04-27 13:35 42.03978 2.81320 3003 ft 225 kts 196°
2026-04-27 13:35 42.02537 2.80772 2725 ft 205 kts 195°
2026-04-27 13:36 42.01240 2.80279 2463 ft 186 kts 195°
2026-04-27 13:36 42.00025 2.79818 2238 ft 178 kts 194°
2026-04-27 13:36 41.98852 2.79371 1991 ft 171 kts 193°
2026-04-27 13:36 41.97743 2.78951 1783 ft 164 kts 194°
2026-04-27 13:37 41.96656 2.78539 1564 ft 160 kts 195°
2026-04-27 13:37 41.95645 2.78157 1369 ft 143 kts 195°
2026-04-27 13:37 41.94718 2.77806 1168 ft 134 kts 196°
2026-04-27 13:37 41.93846 2.77475 999 ft 128 kts 196°
2026-04-27 13:38 41.92980 2.77147 833 ft 130 kts 197°
2026-04-27 13:38 41.92132 2.76826 668 ft 124 kts 195°
2026-04-27 13:38 41.91309 2.76515 510 ft 124 kts 196°
2026-04-27 13:38 41.90582 2.76238 458 ft 76 kts 195°
2026-04-27 13:39 41.90270 2.76121 447 ft 32 kts 195°
2026-04-27 13:39 41.90046 2.76036 428 ft 35 kts 196°
2026-04-27 13:39 41.89805 2.75947 418 ft 36 kts 195°
2026-04-27 13:39 41.89607 2.75871 415 ft 18 kts 195°
2026-04-27 13:40 41.89523 2.75932 409 ft 16 kts 80°
2026-04-27 13:40 41.89557 2.76019 411 ft 9 kts 59°
2026-04-27 13:40 41.89589 2.76086 413 ft 7 kts 52°
2026-04-27 13:40 41.89636 2.76112 415 ft 11 kts 15°
2026-04-27 13:41 41.89731 2.76147 416 ft 18 kts 15°
2026-04-27 13:41 41.89836 2.76188 417 ft 14 kts 16°
2026-04-27 13:41 41.89895 2.76214 424 ft 7 kts 33°
2026-04-27 13:41 41.89910 2.76281 426 ft 7 kts 126°
2026-04-27 13:42 41.89886 2.76357 416 ft 10 kts 115°
2026-04-27 13:42 41.89842 2.76391 411 ft 7 kts 172°
2026-04-27 13:42 41.89798 2.76378 417 ft 6 kts 163°
2026-04-27 13:42 41.89780 2.76411 414 ft 3 kts 109°
2026-04-27 13:43 41.89774 2.76440 410 ft 2 kts 107°
2026-04-27 13:43 41.89772 2.76447 410 ft 0 kts 107°